Flag for USA

Past Weather in Medford, Oregon, USA — Yesterday and Last 2 Weeks

Now
64 °F

Clear.


Feels Like: 64 °F
Forecast: 84 / 57 °F
Wind: No wind

Location: Rogue Valley International Airport

Current Time: Jul 9, 2020 at 1:50:10 am

Latest Report: Jul 9, 2020 at 12:53 am


Visibility: 10 mi

Pressure: 29.97 "Hg

Humidity: 50%

Dew Point: 45 °F

Location of MedfordLocation

Past Weather in Medford — Graph

°F

Medford Temperature Yesterday

Maximum temperature yesterday: 86 °F (at 4:53 pm)
Minimum temperature yesterday: 53 °F (at 3:53 am)
Average temperature yesterday: 69 °F

High & Low Weather Summary for the Past Weeks

 TemperatureHumidityPressure
High97 °F (Jun 26, 4:53 pm)81% (Jun 25, 4:53 am)30.14 "Hg (Jun 25, 4:53 am)
Low49 °F (Jul 2, 5:53 am)16% (Jul 4, 1:53 pm)29.81 "Hg (Jun 25, 5:53 pm)
Average69 °F48%29.97 "Hg
* Reported Jun 23 11:53 pm — Jul 8 11:53 pm, Medford. Weather by CustomWeather, © 2020

Note: Actual official high and low records may vary slightly from our data, if they occured in-between our weather recording intervals... More about our weather records

Medford Weather History for the Previous 24 Hours

Scroll right to see more
 ConditionsComfort  
Time TempWeatherWind HumidityBarometerVisibility
11:53 pm
Wed, Jul 8
66 °FClear.No wind49%29.96 "Hg10 mi
10:53 pm68 °FClear.No wind47%29.96 "Hg10 mi
9:53 pm71 °FClear.7 mph41%29.95 "Hg10 mi
8:53 pm75 °FClear.8 mph37%29.93 "Hg10 mi
7:53 pm80 °FSunny.13 mph29%29.90 "Hg10 mi
6:53 pm83 °FSunny.14 mph24%29.89 "Hg10 mi
5:53 pm85 °FSunny.10 mph23%29.88 "Hg10 mi
4:53 pm86 °FSunny.8 mph23%29.89 "Hg10 mi
3:53 pm85 °FSunny.7 mph24%29.91 "Hg10 mi
2:53 pm82 °FSunny.5 mph19%29.93 "Hg10 mi
1:53 pm81 °FSunny.3 mph21%29.95 "Hg10 mi
12:53 pm77 °FSunny.6 mph26%29.97 "Hg10 mi
11:53 am73 °FSunny.3 mph38%30.00 "Hg10 mi
10:53 am69 °FSunny.5 mph47%30.02 "Hg10 mi
9:53 am65 °FSunny.No wind52%30.04 "Hg10 mi
8:53 am61 °FSunny.No wind58%30.06 "Hg10 mi
7:53 am57 °FSunny.3 mph64%30.06 "Hg10 mi
6:53 am54 °FSunny.3 mph72%30.07 "Hg10 mi
5:53 am53 °FSunny.No wind72%30.06 "Hg10 mi
4:53 am54 °FClear.No wind72%30.06 "Hg10 mi
3:53 am53 °FClear.3 mph74%30.06 "Hg10 mi
2:53 am55 °FClear.No wind69%30.06 "Hg10 mi
1:53 am59 °FClear.No wind60%30.06 "Hg10 mi
Weather by CustomWeather, © 2020

See weather overview